Preview of NWS' New Version of Forecast
This preview is not operational and should not be used for support decisions.

Regional Weather Roundup (RWR)

Issued by National Weather Service (NWS)

                            
000
ASUS43 KDMX 201701
RWRIA 

WEATHER ROUNDUP FOR IOWA
NATIONAL WEATHER SERVICE DES MOINES IA
1100 AM CST WED FEB 20 2019

NOTE: "FAIR" INDICATES FEW OR NO CLOUDS BELOW 12,000 FEET WITH NO
SIGNIFICANT WEATHER AND/OR OBSTRUCTIONS TO VISIBILITY.

* - THESE STATIONS ARE NOT NWS STATIONS...THUS NOT UNDER NWS
QUALITY CONTROL.  THEY ALSO DO NOT REPORT WEATHER SUCH 
AS PRECIPITATION OR FOG.  

IAZ001>003-012>014-020>022-031>034-043>046-201800-
   NORTHWEST IOWA
  
CITY           SKY/WX    TMP DP  RH WIND       PRES   REMARKS
CARROLL *      LGT SNOW  28  28 100 SW14      29.63F WCI  17          
CHEROKEE *     LGT SNOW  26  24  91 S7        29.62F WCI  19          
DENISON *      PTSUNNY   27  25  93 SW16      29.65F WCI  14          
LE MARS *      CLOUDY    25  21  86 SW9G16    29.63F WCI  15          
ORANGE CITY *  LGT SNOW  25  21  86 SW9       29.60F WCI  15          
SHELDON *      CLOUDY    25  25 100 S10       29.58F FOG     WCI  15  
SIOUX CITY     CLOUDY    23  18  81 SW13      29.65F WCI  11          
SPENCER        LGT SNOW  26  22  84 S10       29.61F VSB 3/4 WCI  16  
STORM LAKE *   CLOUDY    25  25 100 S8        29.61F FOG     WCI  16  
$$
 
IAZ055>058-069>071-079>083-090>094-201800-
   SOUTHWEST IOWA
  
CITY           SKY/WX    TMP DP  RH WIND       PRES   REMARKS
ATLANTIC *     PTSUNNY   28  28 100 SW17      29.67S WCI  16          
AUDUBON *      PTSUNNY   28  25  86 SW9G17    29.65F WCI  20          
CLARINDA *     LGT SNOW  28  27  93 SW12G17   29.73F WCI  18          
COUNCIL BLFS * LGT SNOW  27  27 100 SW13      29.67S WCI  16          
CRESTON *      LGT SNOW  30  28  93 SW20      29.68S WCI  18          
HARLAN  *      PTSUNNY   27  27 100 SW14      29.66S WCI  15          
LAMONI         CLOUDY    31  27  85 SW16      29.68S WCI  20          
RED OAK *      PTSUNNY   28  28 100 SW14      29.70S FOG     WCI  17  
SHENANDOAH *   LGT SNOW  28  28 100 SW12      29.72S WCI  18          
$$
 
IAZ047>049-059>061-072>074-084-201800-
   CENTRAL IOWA
  
CITY           SKY/WX    TMP DP  RH WIND       PRES   REMARKS
AMES           CLOUDY    29  26  89 S10       29.66S WCI  20          
ANKENY *       CLOUDY    30  28  93 S9        29.68F WCI  22          
BOONE *        LGT SNOW  28  28 100 S8G14     29.63F WCI  20          
CHARITON *     PTSUNNY   32  30  93 SW12G17   29.68R WCI  23          
DES MOINES     CLOUDY    29  26  89 S9        29.68F WCI  20          
GRINNELL*      LGT SNOW  31  29  92 SE13      29.67F WCI  21          
KNOXVILLE *    CLOUDY    32  32 100 S10       29.67F WCI  24          
MARSHALLTOWN   LGT SNOW  29  28  96 S10       29.65F FOG     WCI  20  
NEWTON *       PTSUNNY   30  30 100 S13       29.66F FOG     WCI  20  
PELLA *        CLOUDY    33  29  85 S9        29.69F WCI  25          
PERRY *        CLOUDY    30  29  96 CALM      29.65F FOG              
$$
 
IAZ004>006-015-016-023>025-035-036-201800-
   NORTH CENTRAL IOWA
  
CITY           SKY/WX    TMP DP  RH WIND       PRES   REMARKS
ALGONA *       LGT SNOW  27  27 100 SE12      29.61F VSB 3/4 WCI  16  
CLARION *      CLOUDY    27  27 100 SE15      29.63F FOG     WCI  15  
ESTHERVILLE    SNOW      24  22  91 SE13      29.60F VSB 1/2 WCI  12  
FORT DODGE *   LGT SNOW  30  26  85 S12       29.63F FOG     WCI  20  
MASON CITY     LGT SNOW  25  24  96 SE13      29.64F FOG     WCI  14  
FOREST CITY *  LGT SNOW  28  27  93 SE10      29.63F WCI  19          
IOWA FALLS *   LGT SNOW  29  27  91 SE10      29.65F WCI  20          
$$

IAZ007>011-017>019-026>030-037>042-050>054-066-201800-
   NORTHEAST IOWA
  
CITY           SKY/WX    TMP DP  RH WIND       PRES   REMARKS
CEDAR RAPIDS   LGT SNOW  30  30 100 SE9       29.67F VSB 1   WCI  22  
CHARLES CITY * LGT SNOW  27  25  93 SE14      29.66F WCI  15          
CLINTON *      MIX PCPN  33  31  92 SE18      29.72F FOG     WCI  22  
DECORAH *      LGT SNOW  28  28 100 SE13      29.67F WCI  18          
DUBUQUE        SNOW      30  27  88 SE13      29.70F VSB 1/2 WCI  20  
OELWEIN *      FAIR      28  28 100 SE18      29.66F FOG     WCI  16  
WATERLOO       LGT SNOW  29  26  89 SE12      29.66F FOG     WCI  19  
$$
 
IAZ064-065-067-068-078-201800-
   EAST CENTRAL IOWA
  
CITY           SKY/WX    TMP DP  RH WIND       PRES   REMARKS
DAVENPORT      CLOUDY    33  31  92 SE13      29.73F FOG     WCI  24  
IOWA CITY      LGT SNOW  32  31  96 SE7       29.71F FOG     WCI  26  
MT. PLEASANT * CLOUDY    34  34 100 S8        29.71F FOG     WCI  27  
MUSCATINE *    MIX PCPN  34  32  93 S7        29.72F WCI  28          
QUAD CITIES    CLOUDY    34  32  92 SE9       29.71F FOG     WCI  27  
$$
 
IAZ062-063-075>077-085>089-095>099-201800-
   SOUTHEAST IOWA
  
CITY           SKY/WX    TMP DP  RH WIND       PRES   REMARKS
BURLINGTON     CLOUDY    33  31  92 S10       29.71F FOG     WCI  25  
FAIRFIELD *    CLOUDY    34  32  93 S13       29.69F WCI  25          
FORT MADISON * CLOUDY    34  34 100 S7        29.72F FOG     WCI  28  
KEOKUK *       CLOUDY    32  32 100 S9G16     29.72F FOG     WCI  24  
OSKALOOSA *    CLOUDY    32  30  92 S10       29.68F FOG     WCI  24  
OTTUMWA        CLOUDY    32  30  92 S12       29.68F WCI  23          
WASHINGTON *   CLOUDY    34  34 100 S12       29.70F WCI  25          
$$

ABBREVIATIONS USED IN REMARKS
   TC - TEMPERATURES IN CELSIUS
  WCI - WIND CHILL INDEX
   HX - HEAT INDEX
  VSB - VISIBILITY  
$$